Simultaneous Nadir Overpasses (SNOs) Predictions

Prediction of SNOs between NOAA-20 and AQUA Satellite Orbit:

Table of predicted SNOs for the next 14.0 days since TLE Epoch: 5/29/2020
Index Date (NOAA-20) Time (NOAA-20) Lat,Lon (NOAA-20) SZA (NOAA-20 ) Date (AQUA) Time (AQUA) Lat,Lon (AQUA) SZA (AQUA ) Distance(km) Time Diff (sec)
1 05/31/2020 05:56:35 75.92, -30.44 75.70 05/31/2020 05:57:02 75.92, -30.45 75.68 0.15 27
2 05/31/2020 06:47:02 -76.77, 139.96 105.38 05/31/2020 06:46:12 -76.78, 140.03 105.35 1.84 50
3 06/02/2020 21:27:41 -60.32,-105.14 87.91 06/02/2020 21:28:54 -60.11,-103.84 88.18 75.34 73
4 06/02/2020 22:13:26 76.07, 85.84 75.19 06/02/2020 22:13:28 76.08, 85.93 75.17 2.48 2
5 06/02/2020 23:03:36 -77.65,-100.50 106.85 06/02/2020 23:02:22 -77.68,-100.61 106.78 4.18 74
6 06/05/2020 13:39:52 -75.35, 31.98 104.20 06/05/2020 13:40:47 -75.36, 32.03 104.26 1.52 55
7 06/05/2020 14:30:07 76.67,-156.20 74.17 06/05/2020 14:29:45 76.67,-156.25 74.20 1.30 22
8 06/08/2020 05:56:31 -76.06, 150.04 105.29 06/08/2020 05:57:02 -76.05, 149.96 105.30 2.31 31
9 06/08/2020 06:46:58 76.82, -39.87 73.76 06/08/2020 06:46:11 76.82, -39.85 73.80 0.40 47
10 06/10/2020 22:13:19 -76.30, -93.34 105.77 06/10/2020 22:13:25 -76.30, -93.38 105.76 0.90 6




NCC Satellite Simultaneous Nadir Overpasses (SNOs) Prediction Service
